Tacoma Narrows, WA
on Thursday, November 22, 2012

Thursday
Previous Day Next Day
Daily Summary
 ActualAverageRecord
Temperature
Mean Temperature °F °F  
Max Temperature 45°F 47°F 132°F (1998)
Min Temperature 37°F 39°F 21°F (2010)
Degree Days
Heating Degree Days 24    
Moisture
Dew Point 37°F   
Average Humidity 83    
Maximum Humidity 93    
Minimum Humidity 68    
Precipitation
Precipitation 0.03 in in in ()
Wind
Wind Speed 3 mph   
Max Wind Speed 7 mph   
Max Gust Speed mph   
Visibility 10 miles   
Events Rain   
Averages and records for this station are not official NWS values.
Key: T is trace of precipitation, MM is missing value
Source: NWS Daily Summary
Seasonal Weather Averages
Time(PST)TemperatureDew PointHumidity Pressure Visibility Wind DirectionWind SpeedGust SpeedPrecipitationEvents Conditions
12:53 AM 41.0°F 37.0°F 86% 30.31 in 10.0 miles South 6.9 mph - N/A   Clear
1:53 AM 39.9°F 36.0°F 86% 30.32 in 10.0 miles ESE 4.6 mph - N/A   Clear
2:53 AM 39.0°F 35.1°F 86% 30.34 in 10.0 miles South 4.6 mph - N/A   Clear
3:53 AM 37.9°F 35.1°F 89% 30.35 in 10.0 miles SSE 3.5 mph - N/A   Partly Cloudy
4:53 AM 37.9°F 35.1°F 89% 30.36 in 10.0 miles Calm Calm - N/A   Clear
5:53 AM 37.9°F 35.1°F 89% 30.37 in 10.0 miles East 3.5 mph - N/A   Mostly Cloudy
6:53 AM 39.0°F 34.0°F 82% 30.37 in 10.0 miles Calm Calm - N/A   Partly Cloudy
7:53 AM 37.9°F 34.0°F 86% 30.36 in 10.0 miles Calm Calm - N/A   Partly Cloudy
8:53 AM 39.0°F 36.0°F 89% 30.37 in 10.0 miles Calm Calm - N/A   Overcast
9:53 AM 41.0°F 37.0°F 86% 30.37 in 10.0 miles Calm Calm - N/A   Overcast
10:53 AM 42.1°F 35.1°F 76% 30.35 in 10.0 miles NE 3.5 mph - N/A   Mostly Cloudy
11:53 AM 43.0°F 34.0°F 71% 30.34 in 10.0 miles NNE 3.5 mph - N/A   Overcast
12:53 PM 45.0°F 35.1°F 68% 30.32 in 10.0 miles Calm Calm - N/A   Overcast
1:53 PM 45.0°F 36.0°F 71% 30.32 in 10.0 miles West 4.6 mph - N/A   Overcast
2:53 PM 45.0°F 37.9°F 76% 30.31 in 10.0 miles Calm Calm - N/A   Overcast
3:53 PM 45.0°F 37.9°F 76% 30.30 in 10.0 miles Calm Calm - N/A   Overcast
4:53 PM 45.0°F 39.0°F 80% 30.29 in 10.0 miles Calm Calm - N/A   Overcast
5:53 PM 43.0°F 39.0°F 86% 30.28 in 10.0 miles Calm Calm - N/A   Overcast
6:53 PM 43.0°F 39.9°F 89% 30.26 in 10.0 miles Calm Calm - N/A   Partly Cloudy
7:53 PM 43.0°F 39.0°F 86% 30.24 in 10.0 miles Calm Calm - N/A   Overcast
8:53 PM 43.0°F 37.9°F 82% 30.24 in 10.0 miles West 5.8 mph - N/A   Partly Cloudy
9:53 PM 44.1°F 41.0°F 89% 30.24 in 10.0 miles Calm Calm - N/A   Overcast
10:53 PM 43.0°F 39.9°F 89% 30.24 in 10.0 miles Calm Calm - N/A   Overcast
11:53 PM 44.1°F 42.1°F 93% 30.24 in 7.0 miles Calm Calm - 0.03 in Rain Light Rain
Moon Phase
Nov. 22 Nov. 28 Dec. 06 Dec. 13 Dec. 20
Sunrise:07:25 AM (PST) Moon Rise:01:33 PM (PST)11/22
Sunset:04:27 PM (PST) Moon Set:01:30 AM (PST)11/22

Copyright © 2014 The Weather Underground, Inc.